Time,TemperatureF,DewpointF,PressureIn,WindDirection,WindDirectionDegrees,WindSpeedMPH,WindSpeedGustMPH,Humidity,HourlyPrecipIn,Conditions,Clouds,dailyrainin,SoftwareType,DateUTC
2013-09-25 00:05:00,60.1,49.1,29.94,North,-999,0.0,0.0,67,0.00,,,-99.99,FreeWX 2.04,2013-09-25 04:05:00,
2013-09-25 00:15:00,59.9,48.9,29.94,North,-999,0.0,0.0,67,0.00,,,-99.99,FreeWX 2.04,2013-09-25 04:15:00,
2013-09-25 00:25:00,59.5,48.6,29.94,North,-999,0.0,0.0,67,0.00,,,-99.99,FreeWX 2.04,2013-09-25 04:25:00,
2013-09-25 00:35:00,59.2,47.8,29.91,North,-999,0.0,0.0,66,0.00,,,-99.99,FreeWX 2.04,2013-09-25 04:35:00,
2013-09-25 00:45:00,59.2,48.2,29.91,North,-999,0.0,0.0,67,0.00,,,-99.99,FreeWX 2.04,2013-09-25 04:45:00,
2013-09-25 00:55:00,59.0,48.0,29.94,North,-999,0.0,0.0,67,0.00,,,-99.99,FreeWX 2.04,2013-09-25 04:55:00,
2013-09-25 01:05:00,58.5,47.1,29.91,North,-999,0.0,0.0,66,0.00,,,-99.99,FreeWX 2.04,2013-09-25 05:05:00,
2013-09-25 01:15:00,58.3,46.9,29.91,North,-999,0.0,0.0,66,0.00,,,-99.99,FreeWX 2.04,2013-09-25 05:15:00,
2013-09-25 01:26:00,58.1,46.8,29.91,North,-999,0.0,0.0,66,0.00,,,-99.99,FreeWX 2.04,2013-09-25 05:26:00,
2013-09-25 01:36:00,57.9,46.6,29.91,North,-999,0.0,0.0,66,0.00,,,-99.99,FreeWX 2.04,2013-09-25 05:36:00,
2013-09-25 01:46:00,58.5,49.1,29.91,North,-999,0.0,0.0,71,0.00,,,-99.99,FreeWX 2.04,2013-09-25 05:46:00,
2013-09-25 01:56:00,57.9,48.2,29.91,North,-999,0.0,0.0,70,0.00,,,-99.99,FreeWX 2.04,2013-09-25 05:56:00,
2013-09-25 02:06:00,57.9,48.2,29.91,North,-999,0.0,0.0,70,0.00,,,-99.99,FreeWX 2.04,2013-09-25 06:06:00,
2013-09-25 02:16:00,57.7,48.0,29.91,North,-999,0.0,0.0,70,0.00,,,-99.99,FreeWX 2.04,2013-09-25 06:16:00,
2013-09-25 02:26:00,57.6,47.5,29.91,North,-999,0.0,0.0,69,0.00,,,-99.99,FreeWX 2.04,2013-09-25 06:26:00,
2013-09-25 02:36:00,57.4,47.3,29.91,North,-999,0.0,0.0,69,0.00,,,-99.99,FreeWX 2.04,2013-09-25 06:36:00,
2013-09-25 02:46:00,57.4,47.3,29.91,North,-999,0.0,0.0,69,0.00,,,-99.99,FreeWX 2.04,2013-09-25 06:46:00,
2013-09-25 02:56:00,57.4,47.3,29.91,North,-999,0.0,0.0,69,0.00,,,-99.99,FreeWX 2.04,2013-09-25 06:56:00,
2013-09-25 03:06:00,57.2,47.1,29.88,North,-999,0.0,0.0,69,0.00,,,-99.99,FreeWX 2.04,2013-09-25 07:06:00,
2013-09-25 03:16:00,57.4,47.7,29.88,North,-999,0.0,0.0,70,0.00,,,-99.99,FreeWX 2.04,2013-09-25 07:16:00,
2013-09-25 03:26:00,56.8,46.8,29.88,North,-999,0.0,0.0,69,0.00,,,-99.99,FreeWX 2.04,2013-09-25 07:26:00,
2013-09-25 03:36:00,56.7,46.6,29.88,North,-999,0.0,0.0,69,0.00,,,-99.99,FreeWX 2.04,2013-09-25 07:36:00,
2013-09-25 03:46:00,56.5,46.4,29.88,North,-999,0.0,0.0,69,0.00,,,-99.99,FreeWX 2.04,2013-09-25 07:46:00,
2013-09-25 03:56:00,56.7,46.6,29.88,North,-999,0.0,0.0,69,0.00,,,-99.99,FreeWX 2.04,2013-09-25 07:56:00,
2013-09-25 04:06:00,56.3,45.9,29.88,North,-999,0.0,0.0,68,0.00,,,-99.99,FreeWX 2.04,2013-09-25 08:06:00,
2013-09-25 04:16:00,55.9,45.5,29.88,North,-999,0.0,0.0,68,0.00,,,-99.99,FreeWX 2.04,2013-09-25 08:16:00,
2013-09-25 04:26:00,55.9,46.2,29.88,North,-999,0.0,0.0,70,0.00,,,-99.99,FreeWX 2.04,2013-09-25 08:26:00,
2013-09-25 04:36:00,55.9,46.2,29.88,North,-999,0.0,0.0,70,0.00,,,-99.99,FreeWX 2.04,2013-09-25 08:36:00,
2013-09-25 04:46:00,55.8,46.0,29.88,North,-999,0.0,0.0,70,0.00,,,-99.99,FreeWX 2.04,2013-09-25 08:46:00,
2013-09-25 04:56:00,55.8,46.0,29.88,North,-999,0.0,0.0,70,0.00,,,-99.99,FreeWX 2.04,2013-09-25 08:56:00,
2013-09-25 05:06:00,55.6,45.5,29.88,North,-999,0.0,0.0,69,0.00,,,-99.99,FreeWX 2.04,2013-09-25 09:06:00,
2013-09-25 05:16:00,55.2,45.1,29.88,North,-999,0.0,0.0,69,0.00,,,-99.99,FreeWX 2.04,2013-09-25 09:16:00,
2013-09-25 05:26:00,55.0,45.1,29.88,North,-999,0.0,0.0,69,0.00,,,-99.99,FreeWX 2.04,2013-09-25 09:26:00,
2013-09-25 05:36:00,55.2,45.7,29.88,North,-999,0.0,0.0,70,0.00,,,-99.99,FreeWX 2.04,2013-09-25 09:36:00,
2013-09-25 05:46:00,55.0,45.1,29.88,North,-999,0.0,0.0,69,0.00,,,-99.99,FreeWX 2.04,2013-09-25 09:46:00,
2013-09-25 05:56:00,55.0,45.5,29.88,North,-999,0.0,0.0,70,0.00,,,-99.99,FreeWX 2.04,2013-09-25 09:56:00,
2013-09-25 06:06:00,55.2,45.7,29.88,North,-999,0.0,0.0,70,0.00,,,-99.99,FreeWX 2.04,2013-09-25 10:06:00,
2013-09-25 06:16:00,54.9,45.3,29.88,North,-999,0.0,0.0,70,0.00,,,-99.99,FreeWX 2.04,2013-09-25 10:16:00,
2013-09-25 06:26:00,54.7,45.1,29.88,North,-999,0.0,0.0,70,0.00,,,-99.99,FreeWX 2.04,2013-09-25 10:26:00,
2013-09-25 06:36:00,54.7,45.5,29.88,North,-999,0.0,0.0,71,0.00,,,-99.99,FreeWX 2.04,2013-09-25 10:36:00,
2013-09-25 06:46:00,55.2,46.0,29.88,North,-999,0.0,0.0,71,0.00,,,-99.99,FreeWX 2.04,2013-09-25 10:46:00,
2013-09-25 06:56:00,55.2,46.0,29.88,North,-999,0.0,0.0,71,0.00,,,-99.99,FreeWX 2.04,2013-09-25 10:56:00,
2013-09-25 07:06:00,55.2,46.0,29.88,North,-999,0.0,0.0,71,0.00,,,-99.99,FreeWX 2.04,2013-09-25 11:06:00,
2013-09-25 07:16:00,55.4,46.2,29.88,North,-999,0.0,0.0,71,0.00,,,-99.99,FreeWX 2.04,2013-09-25 11:16:00,
2013-09-25 07:26:00,55.4,46.2,29.88,North,-999,0.0,0.0,71,0.00,,,-99.99,FreeWX 2.04,2013-09-25 11:26:00,
2013-09-25 07:36:00,55.4,46.2,29.88,North,-999,0.0,0.0,71,0.00,,,-99.99,FreeWX 2.04,2013-09-25 11:36:00,
2013-09-25 07:46:00,55.8,46.9,29.88,North,-999,0.0,0.0,72,0.00,,,-99.99,FreeWX 2.04,2013-09-25 11:46:00,
2013-09-25 07:56:00,55.9,47.1,29.88,North,-999,0.0,0.0,72,0.00,,,-99.99,FreeWX 2.04,2013-09-25 11:56:00,
2013-09-25 08:06:00,56.3,47.8,29.88,North,-999,0.0,0.0,73,0.00,,,-99.99,FreeWX 2.04,2013-09-25 12:06:00,
2013-09-25 08:16:00,56.7,48.0,29.88,North,-999,0.0,0.0,73,0.00,,,-99.99,FreeWX 2.04,2013-09-25 12:16:00,
2013-09-25 08:26:00,57.0,48.4,29.88,North,-999,0.0,0.0,73,0.00,,,-99.99,FreeWX 2.04,2013-09-25 12:26:00,
2013-09-25 08:36:00,56.8,47.8,29.88,North,-999,0.0,0.0,72,0.00,,,-99.99,FreeWX 2.04,2013-09-25 12:36:00,
2013-09-25 08:46:00,57.2,48.2,29.88,North,-999,0.0,0.0,72,0.00,,,-99.99,FreeWX 2.04,2013-09-25 12:46:00,
2013-09-25 08:56:00,57.2,48.2,29.91,North,-999,0.0,0.0,72,0.00,,,-99.99,FreeWX 2.04,2013-09-25 12:56:00,
2013-09-25 09:06:00,57.4,48.4,29.88,North,-999,0.0,0.0,72,0.00,,,-99.99,FreeWX 2.04,2013-09-25 13:06:00,
2013-09-25 09:16:00,57.7,48.7,29.88,North,-999,0.0,0.0,72,0.00,,,-99.99,FreeWX 2.04,2013-09-25 13:16:00,
2013-09-25 09:26:00,57.9,48.6,29.88,North,-999,0.0,0.0,71,0.00,,,-99.99,FreeWX 2.04,2013-09-25 13:26:00,
2013-09-25 09:36:00,57.9,48.6,29.91,North,-999,0.0,0.0,71,0.00,,,-99.99,FreeWX 2.04,2013-09-25 13:36:00,
2013-09-25 09:46:00,58.3,48.9,29.91,North,-999,0.0,0.0,71,0.00,,,-99.99,FreeWX 2.04,2013-09-25 13:46:00,
2013-09-25 09:56:00,58.5,48.7,29.91,North,-999,0.0,0.0,70,0.00,,,-99.99,FreeWX 2.04,2013-09-25 13:56:00,
2013-09-25 10:06:00,58.8,48.7,29.91,North,-999,0.0,0.0,69,0.00,,,-99.99,FreeWX 2.04,2013-09-25 14:06:00,
2013-09-25 10:16:00,58.8,48.2,29.91,North,-999,0.0,0.0,68,0.00,,,-99.99,FreeWX 2.04,2013-09-25 14:16:00,
2013-09-25 10:26:00,59.4,48.7,29.91,North,-999,0.0,0.0,68,0.00,,,-99.99,FreeWX 2.04,2013-09-25 14:26:00,
2013-09-25 10:36:00,59.5,48.6,29.91,North,-999,0.0,0.0,67,0.00,,,-99.99,FreeWX 2.04,2013-09-25 14:36:00,
2013-09-25 10:46:00,60.4,49.1,29.91,North,-999,0.0,0.0,66,0.00,,,-99.99,FreeWX 2.04,2013-09-25 14:46:00,
2013-09-25 10:56:00,62.4,49.3,29.91,North,-999,0.0,0.0,62,0.00,,,-99.99,FreeWX 2.04,2013-09-25 14:56:00,
2013-09-25 11:06:00,63.7,47.1,29.91,North,-999,0.0,0.0,55,0.00,,,-99.99,FreeWX 2.04,2013-09-25 15:06:00,
2013-09-25 11:16:00,65.5,46.9,29.91,North,-999,0.0,0.0,51,0.00,,,-99.99,FreeWX 2.04,2013-09-25 15:16:00,
2013-09-25 11:26:00,65.7,44.2,29.91,North,-999,0.0,0.0,46,0.00,,,-99.99,FreeWX 2.04,2013-09-25 15:26:00,
2013-09-25 11:36:00,65.7,43.7,29.91,North,-999,0.0,0.0,45,0.00,,,-99.99,FreeWX 2.04,2013-09-25 15:36:00,
2013-09-25 11:46:00,67.1,43.9,29.91,North,-999,0.0,0.0,43,0.00,,,-99.99,FreeWX 2.04,2013-09-25 15:46:00,
2013-09-25 11:56:00,68.7,44.1,29.91,North,-999,0.0,0.0,41,0.00,,,-99.99,FreeWX 2.04,2013-09-25 15:56:00,
2013-09-25 12:06:00,71.6,40.1,29.91,North,-999,0.0,2.7,32,0.00,,,-99.99,FreeWX 2.04,2013-09-25 16:06:00,
2013-09-25 12:16:00,71.8,40.3,29.91,North,-999,0.0,0.0,32,0.00,,,-99.99,FreeWX 2.04,2013-09-25 16:16:00,
2013-09-25 12:26:00,72.7,38.7,29.91,North,-999,0.0,0.0,29,0.00,,,-99.99,FreeWX 2.04,2013-09-25 16:26:00,
2013-09-25 12:36:00,71.6,39.4,29.91,North,-999,0.0,0.0,31,0.00,,,-99.99,FreeWX 2.04,2013-09-25 16:36:00,
2013-09-25 12:46:00,71.1,40.5,29.91,North,-999,0.0,0.0,33,0.00,,,-99.99,FreeWX 2.04,2013-09-25 16:46:00,
2013-09-25 12:56:00,70.9,40.3,29.91,North,-999,0.0,0.0,33,0.00,,,-99.99,FreeWX 2.04,2013-09-25 16:56:00,
2013-09-25 13:06:00,71.1,41.2,29.91,North,-999,0.0,0.0,34,0.00,,,-99.99,FreeWX 2.04,2013-09-25 17:06:00,
2013-09-25 13:16:00,70.9,41.2,29.91,North,-999,0.0,0.0,34,0.00,,,-99.99,FreeWX 2.04,2013-09-25 17:16:00,
2013-09-25 13:26:00,70.5,39.2,29.91,North,-999,0.0,0.0,32,0.00,,,-99.99,FreeWX 2.04,2013-09-25 17:26:00,
2013-09-25 13:36:00,70.5,40.1,29.91,North,-999,0.0,0.0,33,0.00,,,-99.99,FreeWX 2.04,2013-09-25 17:36:00,
2013-09-25 13:46:00,70.3,39.9,29.91,North,-999,0.0,0.0,33,0.00,,,-99.99,FreeWX 2.04,2013-09-25 17:46:00,
2013-09-25 13:56:00,70.0,40.3,29.88,North,-999,0.0,0.0,34,0.00,,,-99.99,FreeWX 2.04,2013-09-25 17:56:00,
2013-09-25 14:06:00,70.0,40.3,29.88,North,-999,0.0,0.0,34,0.00,,,-99.99,FreeWX 2.04,2013-09-25 18:06:00,
2013-09-25 14:16:00,69.6,42.3,29.88,North,-999,0.0,0.0,37,0.00,,,-99.99,FreeWX 2.04,2013-09-25 18:16:00,
2013-09-25 14:26:00,70.0,43.2,29.88,North,-999,0.0,0.0,38,0.00,,,-99.99,FreeWX 2.04,2013-09-25 18:26:00,
2013-09-25 14:36:00,70.5,43.0,29.88,North,-999,0.0,0.0,37,0.00,,,-99.99,FreeWX 2.04,2013-09-25 18:36:00,
2013-09-25 14:46:00,70.9,40.3,29.88,North,-999,0.0,0.0,33,0.00,,,-99.99,FreeWX 2.04,2013-09-25 18:46:00,
2013-09-25 14:56:00,70.7,41.7,29.88,North,-999,0.0,0.0,35,0.00,,,-99.99,FreeWX 2.04,2013-09-25 18:56:00,
2013-09-25 15:06:00,70.5,41.5,29.88,North,-999,0.0,0.0,35,0.00,,,-99.99,FreeWX 2.04,2013-09-25 19:06:00,
2013-09-25 15:16:00,70.2,40.5,29.88,North,-999,0.0,0.0,34,0.00,,,-99.99,FreeWX 2.04,2013-09-25 19:16:00,
2013-09-25 15:26:00,70.0,41.0,29.88,North,-999,0.0,0.0,35,0.00,,,-99.99,FreeWX 2.04,2013-09-25 19:26:00,
2013-09-25 15:36:00,70.0,41.7,29.88,North,-999,0.0,0.0,36,0.00,,,-99.99,FreeWX 2.04,2013-09-25 19:36:00,
2013-09-25 15:46:00,70.3,40.6,29.88,North,-999,0.0,0.0,34,0.00,,,-99.99,FreeWX 2.04,2013-09-25 19:46:00,
2013-09-25 15:56:00,70.3,41.4,29.85,North,-999,0.0,0.0,35,0.00,,,-99.99,FreeWX 2.04,2013-09-25 19:56:00,
2013-09-25 16:06:00,70.3,40.6,29.88,North,-999,0.0,0.0,34,0.00,,,-99.99,FreeWX 2.04,2013-09-25 20:06:00,
2013-09-25 16:16:00,70.0,40.3,29.88,North,-999,0.0,0.0,34,0.00,,,-99.99,FreeWX 2.04,2013-09-25 20:16:00,
2013-09-25 16:26:00,70.0,41.7,29.88,North,-999,0.0,0.0,36,0.00,,,-99.99,FreeWX 2.04,2013-09-25 20:26:00,
2013-09-25 16:36:00,70.0,41.7,29.85,North,-999,0.0,0.0,36,0.00,,,-99.99,FreeWX 2.04,2013-09-25 20:36:00,
2013-09-25 16:46:00,70.0,41.0,29.85,North,-999,0.0,0.0,35,0.00,,,-99.99,FreeWX 2.04,2013-09-25 20:46:00,
2013-09-25 16:56:00,70.2,40.5,29.88,North,-999,0.0,0.0,34,0.00,,,-99.99,FreeWX 2.04,2013-09-25 20:56:00,
2013-09-25 17:06:00,70.3,39.9,29.88,North,-999,0.0,0.0,33,0.00,,,-99.99,FreeWX 2.04,2013-09-25 21:06:00,
2013-09-25 17:16:00,70.2,40.5,29.88,North,-999,0.0,0.0,34,0.00,,,-99.99,FreeWX 2.04,2013-09-25 21:16:00,
2013-09-25 17:26:00,69.6,39.9,29.88,North,-999,0.0,0.0,34,0.00,,,-99.99,FreeWX 2.04,2013-09-25 21:26:00,
2013-09-25 17:36:00,69.4,41.4,29.88,North,-999,0.0,0.0,36,0.00,,,-99.99,FreeWX 2.04,2013-09-25 21:36:00,
2013-09-25 17:46:00,69.1,39.6,29.88,North,-999,0.0,2.7,34,0.00,,,-99.99,FreeWX 2.04,2013-09-25 21:46:00,
2013-09-25 17:56:00,69.1,41.0,29.88,North,-999,0.0,0.0,36,0.00,,,-99.99,FreeWX 2.04,2013-09-25 21:56:00,
2013-09-25 18:06:00,68.9,40.8,29.88,North,-999,0.0,0.0,36,0.00,,,-99.99,FreeWX 2.04,2013-09-25 22:06:00,
2013-09-25 18:16:00,68.7,40.6,29.88,North,-999,0.0,0.0,36,0.00,,,-99.99,FreeWX 2.04,2013-09-25 22:16:00,
2013-09-25 18:26:00,68.0,44.1,29.88,North,-999,0.0,0.0,42,0.00,,,-99.99,FreeWX 2.04,2013-09-25 22:26:00,
2013-09-25 18:36:00,67.6,45.5,29.88,North,-999,0.0,0.0,45,0.00,,,-99.99,FreeWX 2.04,2013-09-25 22:36:00,
2013-09-25 18:46:00,67.3,45.9,29.88,North,-999,0.0,0.0,46,0.00,,,-99.99,FreeWX 2.04,2013-09-25 22:46:00,
2013-09-25 18:56:00,67.1,46.2,29.88,North,-999,0.0,0.0,47,0.00,,,-99.99,FreeWX 2.04,2013-09-25 22:56:00,
2013-09-25 19:06:00,67.1,45.7,29.88,North,-999,0.0,0.0,46,0.00,,,-99.99,FreeWX 2.04,2013-09-25 23:06:00,
2013-09-25 19:16:00,66.7,45.9,29.88,North,-999,0.0,0.0,47,0.00,,,-99.99,FreeWX 2.04,2013-09-25 23:16:00,
2013-09-25 19:26:00,66.4,48.2,29.88,North,-999,0.0,0.0,52,0.00,,,-99.99,FreeWX 2.04,2013-09-25 23:26:00,
2013-09-25 19:36:00,65.8,48.2,29.88,North,-999,0.0,0.0,53,0.00,,,-99.99,FreeWX 2.04,2013-09-25 23:36:00,
2013-09-25 19:46:00,65.5,48.9,29.88,North,-999,0.0,0.0,55,0.00,,,-99.99,FreeWX 2.04,2013-09-25 23:46:00,
2013-09-25 19:56:00,64.9,48.9,29.88,North,-999,0.0,0.0,56,0.00,,,-99.99,FreeWX 2.04,2013-09-25 23:56:00,
2013-09-25 20:06:00,64.4,49.8,29.88,North,-999,0.0,0.0,59,0.00,,,-99.99,FreeWX 2.04,2013-09-26 00:06:00,
2013-09-25 20:16:00,64.0,50.7,29.88,North,-999,0.0,0.0,62,0.00,,,-99.99,FreeWX 2.04,2013-09-26 00:16:00,
2013-09-25 20:26:00,63.5,49.3,29.88,North,-999,0.0,0.0,60,0.00,,,-99.99,FreeWX 2.04,2013-09-26 00:26:00,
2013-09-25 20:36:00,63.3,49.6,29.88,North,-999,0.0,0.0,61,0.00,,,-99.99,FreeWX 2.04,2013-09-26 00:36:00,
2013-09-25 20:46:00,63.0,49.8,29.88,North,-999,0.0,0.0,62,0.00,,,-99.99,FreeWX 2.04,2013-09-26 00:46:00,
2013-09-25 20:56:00,62.8,49.6,29.88,North,-999,0.0,0.0,62,0.00,,,-99.99,FreeWX 2.04,2013-09-26 00:56:00,
2013-09-25 21:06:00,62.4,49.6,29.88,North,-999,0.0,0.0,63,0.00,,,-99.99,FreeWX 2.04,2013-09-26 01:06:00,
2013-09-25 21:16:00,62.2,49.5,29.88,North,-999,0.0,0.0,63,0.00,,,-99.99,FreeWX 2.04,2013-09-26 01:16:00,
2013-09-25 21:26:00,62.2,49.8,29.88,North,-999,0.0,0.0,64,0.00,,,-99.99,FreeWX 2.04,2013-09-26 01:26:00,
2013-09-25 21:37:00,62.2,49.8,29.88,North,-999,0.0,0.0,64,0.00,,,-99.99,FreeWX 2.04,2013-09-26 01:37:00,
2013-09-25 21:47:00,62.2,50.4,29.88,North,-999,0.0,0.0,65,0.00,,,-99.99,FreeWX 2.04,2013-09-26 01:47:00,
2013-09-25 21:57:00,62.1,50.2,29.91,North,-999,0.0,0.0,65,0.00,,,-99.99,FreeWX 2.04,2013-09-26 01:57:00,
2013-09-25 22:07:00,61.7,49.8,29.91,North,-999,0.0,0.0,65,0.00,,,-99.99,FreeWX 2.04,2013-09-26 02:07:00,
2013-09-25 22:17:00,61.5,49.6,29.91,North,-999,0.0,0.0,65,0.00,,,-99.99,FreeWX 2.04,2013-09-26 02:17:00,
2013-09-25 22:27:00,61.3,49.1,29.91,North,-999,0.0,0.0,64,0.00,,,-99.99,FreeWX 2.04,2013-09-26 02:27:00,
2013-09-25 22:37:00,61.0,48.7,29.91,North,-999,0.0,0.0,64,0.00,,,-99.99,FreeWX 2.04,2013-09-26 02:37:00,
2013-09-25 22:47:00,60.6,48.4,29.91,North,-999,0.0,0.0,64,0.00,,,-99.99,FreeWX 2.04,2013-09-26 02:47:00,
2013-09-25 22:57:00,60.6,48.7,29.91,North,-999,0.0,0.0,65,0.00,,,-99.99,FreeWX 2.04,2013-09-26 02:57:00,
2013-09-25 23:07:00,60.6,48.7,29.91,North,-999,0.0,0.0,65,0.00,,,-99.99,FreeWX 2.04,2013-09-26 03:07:00,
2013-09-25 23:17:00,60.6,48.7,29.91,North,-999,0.0,0.0,65,0.00,,,-99.99,FreeWX 2.04,2013-09-26 03:17:00,
2013-09-25 23:27:00,60.6,48.7,29.91,North,-999,0.0,0.0,65,0.00,,,-99.99,FreeWX 2.04,2013-09-26 03:27:00,
2013-09-25 23:37:00,60.4,49.5,29.91,North,-999,0.0,0.0,67,0.00,,,-99.99,FreeWX 2.04,2013-09-26 03:37:00,
2013-09-25 23:47:00,60.1,48.7,29.91,North,-999,0.0,0.0,66,0.00,,,-99.99,FreeWX 2.04,2013-09-26 03:47:00,
2013-09-25 23:57:00,59.9,48.9,29.91,North,-999,0.0,0.0,67,0.00,,,-99.99,FreeWX 2.04,2013-09-26 03:57:00,